星链-30229 (STARLINK-30229 )

导读

STARLINK-30229是美国太空探索技术公司(SpaceX)星链星座的卫星,星链计划旨在搭建全球卫星互联网,提供无缝网络覆盖。它于2023年7月28日发射升空,加入近地轨道的星链网络,为全球尤其是偏远地区提供高速低延迟的互联网服务,推进全球网络互联互通的覆盖进程。

Basic Information
目录编号:
57461
目录名称:
STARLINK-30229
国际标识:
2023-107E
轨道中心:
EARTH
卫星名称:
星链-30229
卫星全名:
星链-30229 (STARLINK-30229 )
卫星状态:
在轨 (已飞行1056 天)
发射日期:
2023-07-28 UTC
国别 :
美国 (US)
星等 :
--
Orbit Information
数据来源 国际轨道数据 AOE轨道数据
星历时间 2026-06-18T14:37:28+0800
7小时前
查看轨道信息
2026-06-17T00:00:00+0800
1天前
查看轨道信息
半长轴 6861.2km 6861.202km
偏心率 0.0001163 0.000121
轨道倾角 43.001° 43.000°
近地点辐角 262.463° 238.265°
升交点赤经 135.452° 144.543°
平近点角 97.609° 261.152°
近地点 482.265km 482.234km
远地点 483.861km 483.896km
周期 94.267分钟 94.267分钟
每日圈数 15.275754 15.27575
Detailed Information
固有亮度:
5
最大亮度:
0.3
卫星平台:
Starlink v2.0 mini
覆盖范围:
全球
运营商:
太空探索技术公司
运营商所在国:
美国
制造商(研发单位):
太空探索技术公司
制造商所在国:
美国
使用方式:
暂无
Satellite Introduction
星链(Starlink)计划是由太空探索技术公司(SpaceX)提出的一个巨型低轨卫星互联网星座项目,计划在2019年至2024年间在太空搭建由约1.2万颗卫星组成的“星链”网络,其中1584颗将部署在地球上空550千米处的近地轨道,并从2020年开始工作。该卫星仍在工作。
2D Orbit Map
3D Orbit Map
Orbit Altitude Analysis Chart
Orbit Inclination Analysis Chart
Orbit Comprehensive Analysis Chart
View Comprehensive Chart